User: anonymous
Location: Caltech
(34.1382°N, 118.1253°W)
Time: 13:18:40
(UTC-07:00)
Language:

Cosmos 1606 - Orbit

View from above orbital plane
View from above orbital plane
View from above satellite
View from above satellite

Ground track
Ground track

The orbit data is extracted from the following two-line orbital elements,

1 15369U 84111A   14273.42809064  .00007175  00000-0  42786-3 0  6413
2 15369 082.5330 014.7862 0021632 087.3420 273.0285 15.10809131630547
Epoch (UTC): 30 September 2014 10:16:27
Eccentricity: 0.0021632
inclination: 82.5330°
perigee height: 519 km
apogee height: 548 km
right ascension of ascending node: 14.7862°
argument of perigee: 87.3420°
revolutions per day: 15.10809131
mean anomaly at epoch: 273.0285°
orbit number at epoch: 63054

The dashed part of the orbit path shows where the satellite is in the earth's shadow,  

DLR